This is the latest recevied weather packets stored in our database for station/object K3HM. If no packets are shown the sender has not sent any weather packets the latest 10 day(s).
| Time | Temp. | Humidity | Pressure | Rain* | Wind** | Luminosity | Snow |
|---|---|---|---|---|---|---|---|
| 1777582737 | 5.56° C | 85% | 1013.1 hPa | 0 mm | - | 78 W/m² | - |
| 1777582433 | 5.56° C | 86% | 1013.3 hPa | 0 mm | - | 63 W/m² | - |
| 1777582133 | 5.56° C | 86% | 1013.2 hPa | 0 mm | - | 29 W/m² | - |
| 1777581832 | 5.56° C | 86% | 1013.1 hPa | 0 mm | - | 30 W/m² | - |
| 1777581531 | 5.56° C | 85% | 1013.1 hPa | 0 mm | - | 70 W/m² | - |
| 1777581227 | 5.56° C | 86% | 1013.1 hPa | 0 mm | - | 89 W/m² | - |
| 1777580921 | 5.56° C | 87% | 1013.1 hPa | 0 mm | - | 142 W/m² | - |
| 1777580621 | 5.56° C | 87% | 1012.9 hPa | 0 mm | - | 75 W/m² | - |
| 1777580318 | 5.56° C | 89% | 1013 hPa | 0 mm | - | 40 W/m² | - |
| 1777580014 | 5.56° C | 88% | 1012.9 hPa | 0 mm | - | 55 W/m² | - |
| 1777579709 | 5.56° C | 88% | 1012.8 hPa | 0 mm | - | 60 W/m² | - |
| 1777579408 | 5.56° C | 88% | 1012.8 hPa | 0 mm | - | 80 W/m² | - |
| 1777579104 | 5° C | 89% | 1012.7 hPa | 0 mm | - | 148 W/m² | - |
| 1777578803 | 5° C | 90% | 1012.8 hPa | 0 mm | - | 62 W/m² | - |
| 1777578500 | 5° C | 91% | 1012.8 hPa | 0 mm | - | 42 W/m² | - |
| 1777578200 | 5.56° C | 90% | 1012.6 hPa | 0 mm | - | 32 W/m² | - |
| 1777577895 | 5.56° C | 90% | 1012.5 hPa | 0 mm | - | 44 W/m² | - |
| 1777577591 | 5.56° C | 89% | 1012.5 hPa | 0 mm | - | 92 W/m² | - |
| 1777577289 | 5.56° C | 89% | 1012.3 hPa | 0 mm | - | 62 W/m² | - |
| 1777576984 | 5.56° C | 90% | 1012.5 hPa | 0 mm | - | 131 W/m² | - |
| 1777576681 | 5.56° C | 90% | 1012.5 hPa | 0 mm | - | 99 W/m² | - |
| 1777576380 | 5.56° C | 91% | 1012.3 hPa | 0 mm | - | 84 W/m² | - |
| 1777576077 | 5° C | 93% | 1012.4 hPa | 0 mm | - | 90 W/m² | - |
| 1777575773 | 5° C | 93% | 1012.3 hPa | 0 mm | - | 64 W/m² | - |
| 1777575469 | 5.56° C | 93% | 1012.2 hPa | 0 mm | - | 66 W/m² | - |
* Rain latest hour (hover to see other rain measurements)
** Current wind speed in m/s (hover to see current wind gust speed)